User: anonymous
Location: eljas
(40.1958°N, 6.8661°W)
Time: 16:15:51
(UTC+02:00)
Language:

Okean O Rocket - Orbit

View from above orbital plane
View from above orbital plane
View from above satellite
View from above satellite

Ground track
Ground track

The orbit data is extracted from the following two-line orbital elements,

1 25861U 99039B   14273.54268564  .00000450  00000-0  69762-4 0  7530
2 25861 097.9627 231.1365 0016429 040.8423 084.6476 14.77785661819429
Epoch (UTC): 30 September 2014 13:01:28
Eccentricity: 0.0016429
inclination: 97.9627°
perigee height: 625 km
apogee height: 648 km
right ascension of ascending node: 231.1365°
argument of perigee: 40.8423°
revolutions per day: 14.77785661
mean anomaly at epoch: 84.6476°
orbit number at epoch: 81942

The dashed part of the orbit path shows where the satellite is in the earth's shadow,  

DLR